Regional Weather Roundup
Issued by NWS

Home | Current Version | Previous Version | Graphics & Text | Print | Product List | Glossary Off
Versions: 1 2 3 4 5 6 7 8 9 10 11 12 13 14 15 16 17 18 19 20 21 22 23 24 25 26 27 28 29 30 31 32 33 34 35 36 37 38 39 40 41 42 43 44 45 46 47 48 49 50

000
ASUS43 KOAX 290902
RWRNE

WEATHER ROUNDUP FOR NEBRASKA
NATIONAL WEATHER SERVICE OMAHA NE
400 AM CDT THU JUN 29 2017

NOTES: SATELLITE DATA IS BEING USED TO AUGMENT CLOUD COVER ABOVE
       12000 FEET.
       "FAIR" INDICATES FEW OR NO CLOUDS BELOW 12,000 FEET WITH NO
       SIGNIFICANT WEATHER AND/OR OBSTRUCTIONS TO VISIBILITY.

  * THESE STATIONS DO NOT REPORT WEATHER SUCH AS RAIN...SNOW OR FOG.

NEZ001>004-019>022-054>056-291000-
NEBRASKA PANHANDLE

CITY           SKY/WX    TMP DP  RH WIND       PRES   REMARKS
SCOTTSBLUFF    CLEAR     58  52  80 E8        29.80F
ALLIANCE       CLOUDY    56  51  84 E3        29.79F
CHADRON        CLEAR     53  51  93 SW3       29.78F
GORDON         FAIR      53  51  94 CALM      29.79
KIMBALL        CLEAR     53  53  97 SW6       29.89R
SIDNEY         CLEAR     58  52  80 SE9       29.83F
$$

NEZ057>060-069>072-079>082-291000-
SOUTHWEST NEBRASKA

CITY           SKY/WX    TMP DP  RH WIND       PRES   REMARKS
NORTH PLATTE   LGT RAIN  63  59  87 N13G21    29.87F
IMPERIAL       CLOUDY    63  56  78 NE12      29.83S
LEXINGTON      CLOUDY    71  58  64 N9G35     29.81R
MCCOOK         CLOUDY    73  56  54 VRB6      29.74R
OGALLALA       CLOUDY    64  55  72 SE3       29.80F
$$

NEZ005>010-023>029-035>040-094-291000-
NORTH CENTRAL NEBRASKA

CITY           SKY/WX    TMP DP  RH WIND       PRES   REMARKS
VALENTINE      CLOUDY    63  53  70 SE10      29.74F
BROKEN BOW     MOCLDY    67  56  67 N15       29.81R
O`NEILL        MOCLDY    63  55  77 NW5       29.77R
ORD            MOCLDY    66  55  67 N9        29.78R
THEDFORD       CLOUDY    62  57  83 E5        29.82R
$$

NEZ041-046>049-061>064-073>077-083>087-291000-
SOUTH CENTRAL NEBRASKA

CITY           SKY/WX    TMP DP  RH WIND       PRES   REMARKS
GRAND ISLAND   PTCLDY    70  63  78 S10       29.74R
AURORA         CLOUDY    70  64  82 S9G18     29.74R
HASTINGS       CLOUDY    67  62  84 S7        29.75F
HEBRON         CLOUDY    65  60  86 S18G26    29.76S
HOLDREGE       CLOUDY    68  61  76 SE8       29.72F
KEARNEY *      CLOUDY    66  61  82 S8        29.73F
YORK           CLOUDY    68  66  94 S13G21    29.77R
$$

NEZ011>018-030>034-042>045-291000-
NORTHEAST NEBRASKA

CITY           SKY/WX    TMP DP  RH WIND       PRES   REMARKS
NORFOLK        MOCLDY    65  63  93 NW5       29.75S
ALBION         CLOUDY    74  60  61 NE7       29.75R
BLAIR          CLOUDY    71  65  81 CALM      29.73F
FREMONT        MOCLDY    70  69  94 CALM      29.73F
TEKAMAH        CLOUDY    67  63  87 CALM      29.72S
WAYNE          CLOUDY    62  61  99 CALM      29.75R
$$

NEZ050>053-065>068-078-088>093-291000-
SOUTHEAST NEBRASKA

CITY           SKY/WX    TMP DP  RH WIND       PRES   REMARKS
LINCOLN        CLOUDY    72  68  87 E3        29.73F
OMAHA EPPLEY   CLOUDY    72  66  81 CALM      29.73R
BEATRICE       TSTM      70  65  83 SW10      29.80S
FALLS CITY     CLOUDY    72  67  84 E8        29.76R
NEBRASKA CITY  CLOUDY    74  73  97 S7        29.78R
PLATTSMOUTH    CLOUDY    71  69  93 SE6       29.76R
$$

NEZ044-045-051>053-067-291000-
OMAHA AREA

CITY           SKY/WX    TMP DP  RH WIND       PRES   REMARKS
OMAHA EPPLEY   CLOUDY    72  66  81 CALM      29.73R
BLAIR          CLOUDY    71  65  81 CALM      29.73F
FREMONT        MOCLDY    70  69  94 CALM      29.73F
MILLARD        CLOUDY    72  68  89 CALM      29.73F
OFFUTT AFB     MOCLDY    69  67  93 SE5       29.75R
PLATTSMOUTH    CLOUDY    71  69  93 SE6       29.76R
WAHOO          FAIR      70  65  86 CALM      29.73S
$$



USA.gov is the U.S. government's official web portal to all federal, state and local government web resources and services.